Regional Weather Roundup
Issued by NWS

Home | Current Version | Previous Version | Graphics & Text | Print | Product List | Glossary On
Versions: 1 2 3 4 5 6 7 8 9 10 11 12 13 14 15 16 17 18 19 20 21 22 23 24 25 26 27 28 29 30 31 32 33 34 35 36 37 38 39 40 41 42 43 44 45 46 47 48 49 50
000
ASUS45 KBOI 121010
RWRID

IDAHO REGIONAL WEATHER ROUNDUP
NATIONAL WEATHER SERVICE BOISE ID
300 AM MST TUE DEC 12 2017

NOTE: "FAIR" INDICATES FEW OR NO CLOUDS BELOW 12000 FEET
WITH NO SIGNIFICANT WEATHER AND/OR OBSTRUCTIONS TO VISIBILITY

IDZ012-014-121100-
SOUTHWEST IDAHO


CITY           SKY/WX    TMP DP  RH WIND       PRES   REMARKS
BOISE          CLOUDY    24  21  88 CALM      30.68R
CALDWELL       NOT AVBL
MOUNTAIN HOME  CLOUDY    22  22 100 CALM      30.68R
$$

IDZ016-017-121100-
SOUTHCENTRAL IDAHO


CITY           SKY/WX    TMP DP  RH WIND       PRES   REMARKS
BURLEY         FOG       20  17  88 MISG      30.59R VSB 1/4
JEROME         HAZE      24  18  77 CALM      30.61S VSB 1/4
TWIN FALLS     FOG       22  20  92 CALM      30.60S VSB<1/4
$$

IDZ019>023-121100-
SOUTHEAST IDAHO


CITY           SKY/WX    TMP DP  RH WIND       PRES   REMARKS
IDAHO FALLS    CLOUDY    10   9  95 N6        30.58R WCI   0
POCATELLO      CLOUDY    14  11  87 CALM      30.58S
REXBURG        CLOUDY    11   8  88 NE5       30.57S WCI   3
$$

IDZ006-010-011-018-031-032-121100-
CENTRAL IDAHO MOUNTAINS


CITY           SKY/WX    TMP DP  RH WIND       PRES   REMARKS
MCCALL         FOG        9   7  92 CALM      30.53S VSB 3/4
HAILEY         CLEAR     27  16  63 NW10      30.57S WCI  17
STANLEY          N/A      4   0  83 CALM      30.61S
SALMON         CLOUDY    14  12  92 N3        30.71S FOG
CHALLIS        CLEAR      9   4  80 CALM      30.62S
$$

IDZ002-004-006-007-026-121100-
NORTHERN IDAHO


CITY           SKY/WX    TMP DP  RH WIND       PRES   REMARKS
LEWISTON       CLOUDY    28  25  88 W3        30.66R
LOWELL           N/A     24  22  91 CALM      30.66R
COEUR D`ALENE  CLOUDY    26  25  96 CALM      30.59S FOG
MULLAN PASS    CLEAR     36   3  25 SW3       30.43S
$$



USA.gov is the U.S. government's official web portal to all federal, state and local government web resources and services.